Location: St. Malo Provincial Park
(49.3214°N, 96.9305°W)
Time: 12:20:00
(UTC-05:00)

Daily predictions for brighter satellites

Satellite Brightness Start Highest point End
(mag) Time Altitude Azimuth Time Altitude Azimuth Time Altitude Azimuth
Cosmos 1867 4.0 22:14:08 10° S 22:19:12 41° ESE 22:24:19 10° NE
Cosmos 1300 3.7 22:17:38 10° N 22:21:09 33° ENE 22:24:38 10° SE
Cosmos 1459 Rocket 4.1 22:15:10 10° N 22:21:34 86° E 22:27:48 10° S
H-2A R/B 3.7 22:18:22 10° ESE 22:21:41 22° ENE 22:24:57 10° NNE
Cosmos 2100 Rocket 4.1 22:15:21 10° N 22:21:42 89° WSW 22:28:03 10° S
Cosmos 1340 Rocket 3.3 22:18:14 10° SSW 22:22:14 65° WNW 22:26:19 10° N
Cosmos 2061 Rocket 4.1 22:16:17 10° N 22:22:41 80° E 22:29:07 10° SSE
MetOp-B 4.3 22:18:58 10° SSE 22:24:20 81° WSW 22:29:45 10° NNW
Cosmos 2263 Rocket 4.0 22:22:54 10° ESE 22:25:25 13° E 22:27:57 10° ENE
Cosmos 1726 2.4 22:26:01 10° N 22:29:39 51° ENE 22:33:13 10° SSE
Helios 1B rocket 3.9 22:27:07 10° N 22:31:02 41° WNW 22:34:56 10° SW
ATLAS 5 CENTAUR R/B 1.8 22:28:08 10° SSW 22:32:48 65° SE 22:37:56 10° NE
Lacrosse 5 1.9 22:27:49 10° WNW 22:32:55 83° SW 22:37:59 10° SE
Cosmos 2084 3.4 22:30:09 10° SSW 22:33:58 47° SE 22:37:39 10° NE
SPOT 5 3.0 22:29:18 10° SSE 22:34:08 87° WSW 22:39:18 10° NNW
Cosmos 2173 Rocket 4.1 22:28:39 10° NNW 22:34:49 79° W 22:41:01 10° S
Cosmos 1850 Rocket 4.0 22:30:47 10° SSW 22:35:58 90° WNW 22:41:14 10° NNE
Cosmos 468 Rocket 4.0 22:31:19 10° NNW 22:36:30 80° ENE 22:41:37 10° SSE
Cosmos 2237 Rocket 4.5 22:32:52 10° WNW 22:36:37 19° W 22:40:23 10° SW
Cosmos 2123 Rocket 4.3 22:31:53 10° SSE 22:37:45 48° E 22:43:41 10° NNE
IGS 5A 4.5 22:34:08 10° SE 22:37:53 34° ENE 22:41:38 10° N
Cosmos 371 Rocket 3.6 22:34:58 10° NNW 22:39:45 59° ENE 22:44:22 11° SE
USA 234 3.4 22:37:19 10° ENE 22:43:39 50° SE 22:49:58 10° SSW
Cosmos 1603 3.7 22:38:03 10° NNW 22:43:47 89° WSW 22:49:18 11° SSE
Abrixas rocket 2.3 22:41:06 10° W 22:44:19 58° SSW 22:47:31 10° ESE
H-2A R/B 2.2 22:41:49 10° SSE 22:47:09 87° ENE 22:52:38 10° NNW
ERS-1 Rocket 4.2 22:44:09 10° SSW 22:48:50 39° W 22:53:34 10° NNW
Cosmos 1802 Rocket 4.3 22:47:33 10° NNW 22:53:40 67° W 22:59:43 10° S
Lacrosse 4 Rocket 3.9 22:49:58 10° WSW 22:53:43 28° NW 22:57:34 10° NNE
Cosmos 1674 3.4 22:50:27 10° SSW 22:54:08 53° WNW 22:57:50 10° N
Cosmos 1455 4.0 22:52:01 10° NNE 22:55:00 21° ENE 22:57:48 11° ESE
Cosmos 1725 Rocket 4.0 22:50:03 10° N 22:56:22 81° E 23:02:34 10° SSE
Cosmos 2227 Rocket 4.1 22:51:17 10° WSW 22:56:26 35° NW 23:01:36 10° NNE
SL-16 R/B 3.8 22:55:44 10° NW 23:00:26 27° WSW 23:05:06 10° SSW
Cosmos 1943 3.4 22:55:21 10° NNW 23:01:01 68° ENE 23:05:59 14° SE
Landsat 7 3.8 22:59:49 12° SSE 23:04:19 90° WSW 23:09:08 10° NNW
KORONAS-FOTON 4.3 23:01:06 10° SSW 23:04:51 60° WNW 23:08:37 10° N
Cosmos 1408 Rocket 3.8 23:02:19 10° SSW 23:06:36 70° W 23:10:57 10° N
Tiangong 1 2.2 23:05:01 10° SW 23:07:12 21° S 23:07:55 19° SSE
ARGOS 4.1 23:03:02 10° S 23:08:13 45° W 23:13:25 10° NNW
Cosmos 540 Rocket 4.3 23:09:31 10° NNW 23:14:24 41° ENE 23:18:37 13° SE
DMSP B5D2-2 4.1 23:10:23 10° NNE 23:15:38 70° ESE 23:20:50 10° S
Cosmos 2058 3.5 23:15:04 16° SSE 23:18:04 42° E 23:22:04 10° NNE
Cosmos 1703 4.2 23:16:14 17° SSE 23:18:43 34° E 23:22:22 10° NNE
Terra 1.8 23:15:15 15° SSE 23:19:16 89° E 23:24:04 10° NNW
Cosmos 1356 4.0 23:18:01 18° SSE 23:20:12 41° E 23:23:32 10° NNE
CZ-3B DEB 4.5 23:10:09 10° W 23:21:12 69° N 23:34:28 10° ENE
ERBS 2.7 23:22:45 10° WNW 23:26:03 49° SW 23:27:57 22° SSE
Cosmos 1500 Rocket 3.6 23:22:19 13° S 23:26:13 72° E 23:30:40 10° NNE
Meteor 1-11 4.3 23:22:53 12° S 23:28:14 67° E 23:34:01 10° NNE
RESURS DK-1 3.7 23:28:29 10° NW 23:32:13 32° WSW 23:35:16 14° SSW
Cosmos 2151 3.0 23:30:36 16° S 23:33:58 72° E 23:38:17 10° NNE
CZ-3A R/B 0.3 23:33:04 10° NW 23:33:52 33° NNW 23:33:52 33° NNW
CZ-2C R/B 4.3 23:31:06 10° NE 23:34:35 17° E 23:37:05 13° ESE
CARTOSAT-1 3.9 23:32:40 16° S 23:36:02 61° WSW 23:40:20 10° NNW
SME Rocket 3.5 23:34:18 19° SE 23:36:54 53° ENE 23:41:37 10° N
Meteor 1-27 4.4 23:32:21 10° NNW 23:38:13 79° W 23:42:49 17° S
BREEZE-M DEB (TANK) 2.6 23:35:46 10° W 23:38:24 89° NNW 23:47:04 10° E
Cosmos 1486 Rocket 4.0 23:37:23 10° SSW 23:42:38 76° ESE 23:47:58 10° NNE
Spot 4 3.9 23:39:25 20° SSE 23:42:52 81° ENE 23:47:46 10° NNW
Cosmos 1805 Rocket 4.3 23:42:51 21° SE 23:45:07 36° E 23:49:07 10° NNE
Cosmos 304 Rocket 3.8 23:40:58 10° NNW 23:45:48 78° ENE 23:48:57 22° SSE
Cosmos 841 Rocket 3.8 23:42:27 10° NNW 23:47:38 60° WSW 23:51:18 19° S
Cosmos 2228 Rocket 4.4 23:43:44 10° NNW 23:47:57 36° W 23:51:58 11° SSW
SL-14 R/B 4.4 23:46:42 10° SW 23:50:29 41° WNW 23:54:14 10° N
Cosmos 2233 Rocket 4.2 23:44:41 10° NNW 23:50:53 66° W 23:55:56 16° S
Cosmos 1763 Rocket 4.2 23:46:08 10° NW 23:50:59 44° WSW 23:54:37 17° S
Cosmos 1633 Rocket 4.4 23:49:53 18° SE 23:51:48 25° E 23:55:22 10° NNE
